Find Starlink 30375

NORAD ID: 57732 Int'l Des: 2023-131 Owner: SPXS Country: US Constellation: starlink operational
LEOCIRCULAR

Current View

Loading 3D Globe...

About Starlink 30375

Starlink 30375 (NORAD 57732) is a starlink constellation satellite (v2 mini) launched Sep 1, 2023 by SPXS of US. It operates in LEO, CIRCULAR orbit with a mass of 730.00 kg.

About Starlink 30375

Description loading...

Upcoming Passes

Passes for default location (London). Set your location on the main map for personalized predictions.

Altitude History

Loading altitude history...

Two-Line Element Set

1 57732U 23131A 26177.57622745 .00001266 00000-0 55534-4 0 9996
2 57732 43.0018 262.6751 0000588 175.3468 184.7389 15.27567710156751
Epoch: Jun 26, 2026 • Age: 23 hours

Current Status

Altitude 481.7 km
Velocity 7.63 km/s
Sub-Earth Point 12.37°N, 39.38°W
Launch Date Sep 1, 2023
Age 2.8 years
Type internet

Technical Details

Classification Payload
Mass 730.00 kg
Dry Mass 700.00 kg
Total Mass 730.00 kg
Length 0.30 m
Diameter 4.10 m
Span 29.00 m
Shape Box + pan
Manufacturer SPXS
Bus Type Starlink V2M
Phase Status In Orbit
Owner/State SPXS/US

Most Searched